EFW15AV EGKK-LEIB

Flight info

Callsign EFW15AV
Flight time 1h 5m
Altitude 35000
Route SFD4Z SFD Y47 DRAKE L151 SITET UN859 SOPIL DCT BALAN DCT EVPOK DCT NARAK DCT GAI DCT LOMRA DCT ROCAN/N0457F310 DCT PUMAL DCT XEPLA DCT BCN DCT CORDA CORDA3S
Aircraft A320/M-SDE3FGHIRWY/LB1

Departure

Time 2026-05-06 20:37
Airport London Gatwick Airport (EGKK)

Arrival

Time 2026-05-06 21:43
Airport Ibiza Airport (LEIB)
Time Latitude Longitude Altitude Speed Heading
2026-05-06 20:12 51.15506 -0.16778 213 ft 0 kts 348°
2026-05-06 20:23 51.15498 -0.16775 213 ft 4 kts 348°
2026-05-06 20:24 51.15476 -0.16768 210 ft 3 kts 347°
2026-05-06 20:24 51.15453 -0.16752 216 ft 4 kts 306°
2026-05-06 20:24 51.15446 -0.16714 209 ft 3 kts 271°
2026-05-06 20:24 51.15445 -0.16699 211 ft 0 kts 271°
2026-05-06 20:27 51.15446 -0.16713 209 ft 2 kts 271°
2026-05-06 20:27 51.15447 -0.16754 216 ft 6 kts 273°
2026-05-06 20:28 51.15442 -0.16828 205 ft 8 kts 260°
2026-05-06 20:28 51.15432 -0.16926 204 ft 10 kts 261°
2026-05-06 20:28 51.15418 -0.17043 204 ft 12 kts 258°
2026-05-06 20:28 51.15395 -0.17165 206 ft 10 kts 252°
2026-05-06 20:29 51.15389 -0.17191 205 ft 1 kts 252°
2026-05-06 20:29 51.15379 -0.17235 204 ft 6 kts 249°
2026-05-06 20:29 51.15374 -0.17257 214 ft 7 kts 249°
2026-05-06 20:29 51.15365 -0.17303 206 ft 0 kts 258°
2026-05-06 20:30 51.15365 -0.17304 206 ft 0 kts 258°
2026-05-06 20:30 51.15357 -0.17333 212 ft 6 kts 237°
2026-05-06 20:31 51.15308 -0.17409 208 ft 12 kts 236°
2026-05-06 20:31 51.15287 -0.17551 210 ft 14 kts 257°
2026-05-06 20:31 51.15266 -0.17700 204 ft 13 kts 258°
2026-05-06 20:31 51.15246 -0.17847 204 ft 14 kts 257°
2026-05-06 20:32 51.15223 -0.18015 206 ft 17 kts 257°
2026-05-06 20:32 51.15197 -0.18201 208 ft 16 kts 258°
2026-05-06 20:32 51.15176 -0.18391 206 ft 19 kts 257°
2026-05-06 20:32 51.15148 -0.18601 203 ft 20 kts 258°
2026-05-06 20:33 51.15117 -0.18831 207 ft 22 kts 257°
2026-05-06 20:33 51.15083 -0.19079 209 ft 23 kts 259°
2026-05-06 20:33 51.15030 -0.19253 207 ft 15 kts 194°
2026-05-06 20:33 51.14954 -0.19353 215 ft 16 kts 259°
2026-05-06 20:34 51.14928 -0.19533 206 ft 18 kts 257°
2026-05-06 20:34 51.14898 -0.19738 216 ft 20 kts 257°
2026-05-06 20:34 51.14866 -0.19974 204 ft 23 kts 258°
2026-05-06 20:34 51.14830 -0.20243 202 ft 27 kts 258°
2026-05-06 20:35 51.14789 -0.20540 203 ft 28 kts 257°
2026-05-06 20:35 51.14747 -0.20854 206 ft 30 kts 256°
2026-05-06 20:35 51.14700 -0.21183 204 ft 31 kts 257°
2026-05-06 20:35 51.14617 -0.21309 204 ft 8 kts 188°
2026-05-06 20:36 51.14567 -0.21287 212 ft 9 kts 156°
2026-05-06 20:36 51.14521 -0.21202 211 ft 12 kts 101°
2026-05-06 20:36 51.14529 -0.21096 208 ft 0 kts 75°
2026-05-06 20:36 51.14534 -0.21063 206 ft 19 kts 75°
2026-05-06 20:37 51.14616 -0.20471 214 ft 88 kts 78°
2026-05-06 20:37 51.14786 -0.19231 216 ft 139 kts 78°
2026-05-06 20:37 51.15015 -0.17588 490 ft 155 kts 77°
2026-05-06 20:37 51.15177 -0.16470 872 ft 158 kts 76°
2026-05-06 20:38 51.15503 -0.14063 1502 ft 176 kts 76°
2026-05-06 20:38 51.15775 -0.12065 1775 ft 198 kts 75°
2026-05-06 20:38 51.16088 -0.09820 2136 ft 216 kts 75°
2026-05-06 20:38 51.16134 -0.07397 2786 ft 226 kts 107°
2026-05-06 20:39 51.15210 -0.05324 3357 ft 245 kts 144°
2026-05-06 20:39 51.13588 -0.04180 3885 ft 263 kts 165°
2026-05-06 20:39 51.11774 -0.03598 4748 ft 268 kts 172°
2026-05-06 20:39 51.09912 -0.03177 5620 ft 272 kts 172°
2026-05-06 20:40 51.08038 -0.02648 6506 ft 276 kts 168°
2026-05-06 20:40 51.06148 -0.01941 6888 ft 280 kts 166°
2026-05-06 20:40 51.04265 -0.01124 7002 ft 280 kts 165°
2026-05-06 20:40 51.02397 -0.00253 7020 ft 278 kts 163°
2026-05-06 20:41 51.00553 0.00632 7019 ft 277 kts 163°
2026-05-06 20:41 50.99326 0.01223 7019 ft 277 kts 163°
2026-05-06 20:41 50.96861 0.02408 7016 ft 278 kts 164°
2026-05-06 20:41 50.95011 0.03289 7016 ft 277 kts 163°
2026-05-06 20:42 50.93161 0.04166 7017 ft 277 kts 164°
2026-05-06 20:42 50.91940 0.04744 7016 ft 277 kts 163°
2026-05-06 20:42 50.89475 0.05915 7063 ft 278 kts 163°
2026-05-06 20:42 50.87609 0.06793 7849 ft 280 kts 164°
2026-05-06 20:43 50.85683 0.07330 8630 ft 284 kts 182°
2026-05-06 20:43 50.83693 0.07176 9431 ft 288 kts 184°
2026-05-06 20:43 50.81676 0.06978 10181 ft 293 kts 185°
2026-05-06 20:43 50.79568 0.06760 10465 ft 315 kts 185°
2026-05-06 20:44 50.78080 0.06606 10586 ft 330 kts 185°
2026-05-06 20:44 50.74876 0.06285 10884 ft 356 kts 185°
2026-05-06 20:44 50.73225 0.06120 11238 ft 361 kts 185°
2026-05-06 20:44 50.69851 0.05792 12100 ft 366 kts 184°
2026-05-06 20:45 50.67207 0.05536 12780 ft 369 kts 185°
2026-05-06 20:45 50.62187 0.05045 14011 ft 377 kts 185°
2026-05-06 20:45 50.60447 0.04876 14399 ft 379 kts 185°
2026-05-06 20:46 50.56903 0.04533 15189 ft 383 kts 185°
2026-05-06 20:46 50.54235 0.04277 15784 ft 385 kts 185°
2026-05-06 20:46 50.51546 0.04015 16370 ft 388 kts 185°
2026-05-06 20:46 50.49753 0.03840 16766 ft 390 kts 185°
2026-05-06 20:47 50.46114 0.03485 17584 ft 394 kts 185°
2026-05-06 20:47 50.43366 0.03217 18208 ft 397 kts 185°
2026-05-06 20:47 50.40600 0.02953 18761 ft 400 kts 185°
2026-05-06 20:47 50.37817 0.02686 19316 ft 403 kts 185°
2026-05-06 20:48 50.35004 0.02413 19865 ft 406 kts 185°
2026-05-06 20:48 50.32179 0.02135 20406 ft 408 kts 185°
2026-05-06 20:48 50.29367 0.01858 20913 ft 411 kts 185°
2026-05-06 20:48 50.26504 0.01578 21398 ft 414 kts 185°
2026-05-06 20:49 50.23623 0.01295 21865 ft 416 kts 185°
2026-05-06 20:49 50.20720 0.01014 22321 ft 419 kts 185°
2026-05-06 20:49 50.17803 0.00735 22764 ft 422 kts 185°
2026-05-06 20:49 50.14868 0.00458 23201 ft 424 kts 185°
2026-05-06 20:50 50.11905 0.00232 23614 ft 427 kts 181°
2026-05-06 20:50 50.08929 0.00569 23955 ft 431 kts 172°
2026-05-06 20:50 50.05988 0.01565 24300 ft 434 kts 167°
2026-05-06 20:50 50.04998 0.01956 24416 ft 435 kts 167°
2026-05-06 20:51 50.00107 0.03893 24968 ft 438 kts 167°
2026-05-06 20:51 49.97137 0.05066 25295 ft 441 kts 167°
2026-05-06 20:51 49.94156 0.06243 25611 ft 443 kts 167°
2026-05-06 20:51 49.91160 0.07420 25936 ft 445 kts 167°
2026-05-06 20:52 49.88148 0.08604 26273 ft 448 kts 167°
2026-05-06 20:52 49.85161 0.09777 26589 ft 450 kts 167°
2026-05-06 20:52 49.82075 0.10984 26919 ft 452 kts 167°
2026-05-06 20:52 49.79060 0.12159 27235 ft 454 kts 167°
2026-05-06 20:53 49.78026 0.12561 27369 ft 454 kts 167°
2026-05-06 20:53 49.72946 0.14541 28123 ft 452 kts 167°
2026-05-06 20:53 49.69898 0.15724 28583 ft 451 kts 167°
2026-05-06 20:53 49.67836 0.16523 28888 ft 451 kts 167°
2026-05-06 20:54 49.64834 0.17704 29355 ft 450 kts 166°
2026-05-06 20:54 49.60785 0.19338 29982 ft 449 kts 166°
2026-05-06 20:54 49.57765 0.20571 30399 ft 448 kts 166°
2026-05-06 20:54 49.54751 0.21798 30794 ft 448 kts 166°
2026-05-06 20:55 49.51737 0.23018 31197 ft 447 kts 166°
2026-05-06 20:55 49.48727 0.24228 31595 ft 447 kts 166°
2026-05-06 20:55 49.45723 0.25434 31995 ft 446 kts 166°
2026-05-06 20:55 49.42717 0.26640 32401 ft 446 kts 166°
2026-05-06 20:56 49.39758 0.27822 32799 ft 446 kts 166°
2026-05-06 20:56 49.36761 0.29015 33199 ft 445 kts 166°
2026-05-06 20:56 49.33764 0.30205 33611 ft 445 kts 166°
2026-05-06 20:56 49.30771 0.31392 34011 ft 444 kts 166°
2026-05-06 20:57 49.27777 0.32605 34329 ft 444 kts 165°
2026-05-06 20:57 49.24794 0.33856 34633 ft 444 kts 165°
2026-05-06 20:57 49.21815 0.35126 34914 ft 445 kts 165°
2026-05-06 20:58 49.15805 0.37700 35013 ft 454 kts 165°
2026-05-06 20:58 49.10722 0.39846 35011 ft 458 kts 165°
2026-05-06 20:59 48.84551 0.50774 34994 ft 460 kts 165°
2026-05-06 20:59 48.59756 0.60588 35088 ft 462 kts 166°
2026-05-06 20:59 48.55670 0.62173 34812 ft 461 kts 166°
2026-05-06 21:00 48.35018 0.70532 34828 ft 465 kts 165°
2026-05-06 21:00 48.10257 0.80370 34853 ft 458 kts 166°
2026-05-06 21:00 47.98065 0.85128 34959 ft 457 kts 166°
2026-05-06 21:01 47.89654 0.88402 34805 ft 465 kts 166°
2026-05-06 21:01 47.73243 0.94782 35103 ft 458 kts 166°
2026-05-06 21:01 47.60829 0.99579 35095 ft 460 kts 166°
2026-05-06 21:01 47.52403 1.02813 34993 ft 456 kts 166°
2026-05-06 21:02 47.35733 1.06225 34989 ft 462 kts 182°
2026-05-06 21:02 47.10164 1.05692 34845 ft 464 kts 182°
2026-05-06 21:03 46.84584 1.04719 34778 ft 462 kts 183°
2026-05-06 21:03 46.59077 1.03663 34823 ft 458 kts 183°
2026-05-06 21:03 46.54972 1.03490 35091 ft 456 kts 183°
2026-05-06 21:04 46.34143 1.09208 34928 ft 459 kts 168°
2026-05-06 21:04 46.09107 1.17487 35037 ft 460 kts 168°
2026-05-06 21:05 45.84101 1.25693 35114 ft 461 kts 169°
2026-05-06 21:05 45.59123 1.33851 34992 ft 464 kts 169°
2026-05-06 21:06 45.34182 1.41903 34832 ft 464 kts 169°
2026-05-06 21:06 45.09283 1.49848 34790 ft 461 kts 169°
2026-05-06 21:07 44.84409 1.57738 34948 ft 453 kts 170°
2026-05-06 21:07 44.59566 1.65552 35111 ft 454 kts 170°
2026-05-06 21:07 44.51321 1.68116 34890 ft 455 kts 170°
2026-05-06 21:08 44.34712 1.73277 35081 ft 459 kts 171°
2026-05-06 21:08 44.09717 1.79235 34917 ft 459 kts 175°
2026-05-06 21:09 43.84710 1.83624 34815 ft 452 kts 181°
2026-05-06 21:09 43.63939 1.85463 34873 ft 455 kts 180°
2026-05-06 21:09 43.47437 1.87065 35036 ft 443 kts 181°
2026-05-06 21:10 43.35034 1.88253 35102 ft 441 kts 181°
2026-05-06 21:10 43.10309 1.90616 35104 ft 445 kts 181°
2026-05-06 21:10 42.97980 1.91780 34998 ft 445 kts 182°
2026-05-06 21:11 42.85770 1.92927 34899 ft 443 kts 182°
2026-05-06 21:11 42.61362 1.95626 34961 ft 441 kts 177°
2026-05-06 21:12 42.37217 2.00749 35113 ft 437 kts 178°
2026-05-06 21:12 42.20981 2.02355 34899 ft 440 kts 183°
2026-05-06 21:12 42.00918 2.04240 35050 ft 437 kts 182°
2026-05-06 21:13 41.88811 2.05371 34928 ft 439 kts 182°
2026-05-06 21:13 41.64807 2.07609 34854 ft 432 kts 183°
2026-05-06 21:13 41.52845 2.08735 34981 ft 429 kts 183°
2026-05-06 21:14 41.40872 2.09845 35037 ft 425 kts 183°
2026-05-06 21:14 41.16982 2.13058 35091 ft 432 kts 180°
2026-05-06 21:14 41.05033 2.15103 34990 ft 436 kts 181°
2026-05-06 21:15 40.93283 2.17033 34903 ft 435 kts 181°
2026-05-06 21:15 40.78546 2.19486 34943 ft 430 kts 181°
2026-05-06 21:16 40.72581 2.20478 34991 ft 432 kts 181°
2026-05-06 21:16 40.66607 2.21468 34993 ft 432 kts 181°
2026-05-06 21:17 40.61653 2.22278 35000 ft 432 kts 181°
2026-05-06 21:17 40.55690 2.23259 34999 ft 432 kts 181°
2026-05-06 21:18 40.48721 2.24400 34994 ft 431 kts 181°
2026-05-06 21:18 40.42802 2.25371 34979 ft 431 kts 181°
2026-05-06 21:18 40.40800 2.25719 34791 ft 429 kts 180°
2026-05-06 21:19 40.37860 2.26351 34109 ft 427 kts 179°
2026-05-06 21:19 40.35923 2.26834 33292 ft 430 kts 178°
2026-05-06 21:19 40.31012 2.28186 31816 ft 436 kts 176°
2026-05-06 21:19 40.28038 2.29027 30917 ft 438 kts 176°
2026-05-06 21:20 40.26021 2.29590 30291 ft 440 kts 176°
2026-05-06 21:20 40.23011 2.30402 29202 ft 443 kts 176°
2026-05-06 21:20 40.20022 2.31186 28122 ft 445 kts 176°
2026-05-06 21:20 40.16976 2.31968 26976 ft 448 kts 175°
2026-05-06 21:21 40.13874 2.32760 26067 ft 447 kts 175°
2026-05-06 21:21 40.10832 2.33538 25283 ft 443 kts 174°
2026-05-06 21:21 40.07859 2.34298 24529 ft 440 kts 174°
2026-05-06 21:21 40.04866 2.35066 23791 ft 437 kts 174°
2026-05-06 21:22 40.01894 2.35829 22980 ft 434 kts 173°
2026-05-06 21:22 39.98944 2.36585 22171 ft 430 kts 173°
2026-05-06 21:22 39.96029 2.37332 21414 ft 425 kts 173°
2026-05-06 21:22 39.93098 2.38083 20665 ft 421 kts 173°
2026-05-06 21:23 39.91203 2.38568 20188 ft 419 kts 173°
2026-05-06 21:23 39.87431 2.39533 19368 ft 414 kts 173°
2026-05-06 21:23 39.84605 2.40253 19076 ft 415 kts 173°
2026-05-06 21:23 39.81770 2.40972 18796 ft 415 kts 173°
2026-05-06 21:24 39.78899 2.41697 18512 ft 414 kts 173°
2026-05-06 21:24 39.76108 2.42250 18215 ft 410 kts 178°
2026-05-06 21:24 39.74190 2.42355 17998 ft 407 kts 184°
2026-05-06 21:24 39.71383 2.42104 17675 ft 402 kts 190°
2026-05-06 21:25 39.67717 2.41544 17263 ft 400 kts 189°
2026-05-06 21:25 39.64955 2.41122 16943 ft 398 kts 189°
2026-05-06 21:25 39.62211 2.40701 16636 ft 396 kts 189°
2026-05-06 21:25 39.59479 2.40269 16326 ft 394 kts 191°
2026-05-06 21:26 39.56678 2.39459 16004 ft 390 kts 199°
2026-05-06 21:26 39.54990 2.38694 15792 ft 387 kts 204°
2026-05-06 21:26 39.51800 2.36579 15391 ft 383 kts 214°
2026-05-06 21:26 39.49627 2.34605 15094 ft 382 kts 217°
2026-05-06 21:27 39.47476 2.32592 14800 ft 380 kts 217°
2026-05-06 21:27 39.45330 2.30596 14509 ft 379 kts 217°
2026-05-06 21:27 39.43192 2.28611 14218 ft 378 kts 217°
2026-05-06 21:27 39.41084 2.26652 13938 ft 377 kts 217°
2026-05-06 21:28 39.38953 2.24673 13642 ft 376 kts 217°
2026-05-06 21:28 39.36829 2.22701 13323 ft 375 kts 217°
2026-05-06 21:28 39.34713 2.20739 12998 ft 374 kts 217°
2026-05-06 21:28 39.32595 2.18781 12681 ft 373 kts 217°
2026-05-06 21:29 39.30485 2.16828 12373 ft 372 kts 217°
2026-05-06 21:29 39.28389 2.14881 12058 ft 371 kts 217°
2026-05-06 21:29 39.26299 2.12942 11741 ft 370 kts 217°
2026-05-06 21:29 39.24207 2.11005 11454 ft 369 kts 217°
2026-05-06 21:30 39.22127 2.09078 11158 ft 367 kts 217°
2026-05-06 21:30 39.20051 2.07156 10854 ft 368 kts 217°
2026-05-06 21:30 39.17970 2.05232 10561 ft 368 kts 216°
2026-05-06 21:30 39.15889 2.03312 10269 ft 368 kts 217°
2026-05-06 21:31 39.13807 2.01398 9984 ft 367 kts 216°
2026-05-06 21:31 39.11764 1.99525 9677 ft 354 kts 216°
2026-05-06 21:31 39.09790 1.97712 9356 ft 343 kts 216°
2026-05-06 21:31 39.07875 1.95953 9047 ft 333 kts 216°
2026-05-06 21:32 39.06009 1.94240 8726 ft 325 kts 216°
2026-05-06 21:32 39.02401 1.90928 8116 ft 312 kts 216°
2026-05-06 21:32 39.00675 1.89336 7816 ft 306 kts 217°
2026-05-06 21:33 38.99061 1.87584 7513 ft 301 kts 224°
2026-05-06 21:33 38.97154 1.84823 7220 ft 290 kts 233°
2026-05-06 21:33 38.94944 1.80629 6830 ft 279 kts 236°
2026-05-06 21:33 38.92779 1.76497 6442 ft 278 kts 236°
2026-05-06 21:34 38.90628 1.72398 6031 ft 276 kts 236°
2026-05-06 21:34 38.88486 1.68327 5630 ft 275 kts 235°
2026-05-06 21:34 38.86345 1.64254 5230 ft 275 kts 235°
2026-05-06 21:34 38.84310 1.60138 4839 ft 272 kts 242°
2026-05-06 21:35 38.82983 1.55581 4423 ft 273 kts 253°
2026-05-06 21:35 38.81950 1.50892 4014 ft 273 kts 252°
2026-05-06 21:35 38.80941 1.46329 3622 ft 263 kts 252°
2026-05-06 21:35 38.79805 1.42073 3419 ft 241 kts 242°
2026-05-06 21:36 38.78270 1.38359 3221 ft 236 kts 239°
2026-05-06 21:36 38.76255 1.33492 2994 ft 236 kts 240°
2026-05-06 21:36 38.73166 1.26060 2688 ft 236 kts 240°
2026-05-06 21:36 38.71650 1.22376 2537 ft 251 kts 245°
2026-05-06 21:37 38.71357 1.20165 2452 ft 251 kts 276°
2026-05-06 21:37 38.71948 1.18154 2373 ft 237 kts 309°
2026-05-06 21:37 38.73134 1.16794 2310 ft 224 kts 331°
2026-05-06 21:37 38.74541 1.16048 2220 ft 217 kts 351°
2026-05-06 21:38 38.75522 1.15891 2169 ft 213 kts
2026-05-06 21:38 38.77419 1.16361 2050 ft 206 kts 27°
2026-05-06 21:38 38.78622 1.17323 2005 ft 202 kts 45°
2026-05-06 21:38 38.79510 1.18637 2028 ft 186 kts 60°
2026-05-06 21:39 38.80098 1.20008 2002 ft 167 kts 64°
2026-05-06 21:39 38.80633 1.21295 2007 ft 161 kts 65°
2026-05-06 21:39 38.81158 1.22556 2007 ft 159 kts 64°
2026-05-06 21:39 38.81327 1.22962 2008 ft 158 kts 64°
2026-05-06 21:40 38.82189 1.25035 1886 ft 157 kts 64°
2026-05-06 21:40 38.82702 1.26269 1707 ft 156 kts 64°
2026-05-06 21:40 38.83207 1.27483 1500 ft 156 kts 64°
2026-05-06 21:40 38.83551 1.28309 1365 ft 156 kts 64°
2026-05-06 21:41 38.84224 1.29930 1087 ft 151 kts 65°
2026-05-06 21:41 38.84700 1.31077 878 ft 142 kts 64°
2026-05-06 21:41 38.85152 1.32186 665 ft 140 kts 63°
2026-05-06 21:41 38.85617 1.33282 516 ft 140 kts 62°
2026-05-06 21:42 38.86067 1.34383 333 ft 139 kts 63°
2026-05-06 21:42 38.86524 1.35469 125 ft 138 kts 62°
2026-05-06 21:42 38.86959 1.36537 10 ft 125 kts 62°
2026-05-06 21:42 38.87246 1.37220 13 ft 50 kts 62°
2026-05-06 21:43 38.87401 1.37456 10 ft 24 kts 34°
2026-05-06 21:43 38.87443 1.37491 10 ft 12 kts 33°
2026-05-06 21:43 38.87453 1.37500 10 ft 0 kts 33°
2026-05-06 21:44 38.87474 1.37517 9 ft 5 kts 33°
2026-05-06 21:44 38.87515 1.37551 9 ft 9 kts 28°
2026-05-06 21:44 38.87585 1.37559 9 ft 12 kts 339°
2026-05-06 21:45 38.87664 1.37500 9 ft 15 kts 330°
2026-05-06 21:45 38.87678 1.37386 8 ft 8 kts 251°
2026-05-06 21:45 38.87685 1.37332 8 ft 7 kts 332°
2026-05-06 21:45 38.87710 1.37312 8 ft 1 kts 328°
2026-05-06 21:46 38.87720 1.37304 10 ft 1 kts 329°
2026-05-06 21:46 38.87721 1.37303 9 ft 0 kts 329°